User: anonymous   Login
Location: ?
(35.4214°N, 139.3011°E)
Time: 00:45:06
(UTC+00:00)
Language:

DELTA 2 R/B (1) - Orbit

View from above orbital plane
View from above orbital plane
View from above satellite
View from above satellite

Ground track
Ground track

The orbit data is extracted from the following two-line orbital elements,

1 27665U 03005C   20273.31872229 -.00000111  00000-0 -10133-4 0  9999
2 27665  39.5751 118.9660 0008265 161.7585   6.1783 14.28532492922584
Epoch (UTC): 29 September 2020 07:38:57
Eccentricity: 0.0008265
inclination: 39.5751°
perigee height: 791 km
apogee height: 802 km
right ascension of ascending node: 118.9660°
argument of perigee: 161.7585°
revolutions per day: 14.28532492
mean anomaly at epoch: 6.1783°
orbit number at epoch: 92258

The dashed part of the orbit path shows where the satellite is in the earth's shadow,  

DLR